DW6536 Weather Reports


time (UTC)temp
F
wind
direction
speed
knots
gust
knots
rain 1hr
in
rain 24hr
in
rain mn
in
humidity
%
barometer
mb
20260504214548 83 170 2.6 0.0 0.00 0.00 0.00 57 1007.3
20260504213050 82 125 2.6 0.0 0.00 0.00 0.00 60 1007.5
20260504211542 82 110 2.6 0.0 0.00 0.00 0.00 59 1008.0
20260504210041 82 180 2.6 0.0 0.00 0.00 0.00 61 1008.2
20260504204556 80 145 3.5 0.0 0.00 0.00 0.00 63 1008.5
20260504203038 80 222 1.7 0.0 0.00 0.00 0.00 61 1008.6
20260504201536 81 118 3.5 0.0 0.00 0.00 0.00 61 1009.0
20260504200042 81 193 2.6 0.0 0.00 0.00 0.00 60 1009.2
20260504194538 82 118 2.6 0.0 0.00 0.00 0.00 59 1009.6
20260504193031 82 185 2.6 0.0 0.00 0.00 0.00 60 1009.7
20260504191530 82 122 1.7 0.0 0.00 0.00 0.00 59 1009.8
20260504190030 81 170 1.7 0.0 0.00 0.00 0.00 62 1010.3
20260504184532 81 289 1.7 0.0 0.00 0.00 0.00 60 1010.3
20260504183021 79 216 2.6 0.0 0.00 0.00 0.00 63 1010.6
20260504181517 79 117 1.7 0.0 0.00 0.00 0.00 64 1011.1
20260504180017 79 170 1.7 0.0 0.00 0.00 0.00 62 1011.1
20260504174512 77 105 2.6 0.0 0.00 0.00 0.00 65 1011.4
20260504173010 75 231 1.7 0.0 0.00 0.00 0.00 68 1011.7
20260504171507 75 164 1.7 0.0 0.00 0.00 0.00 66 1012.1
20260504160106 74 243 1.7 0.0 0.00 0.00 0.00 68 1012.7
20260504081528 62 176 1.7 0.0 0.00 0.00 0.00 75 1013.2
20260504044545 65 131 0.9 0.0 0.00 0.00 0.00 65 1015.5
20260504043050 65 122 0.9 0.0 0.00 0.00 0.00 64 1015.7
20260504041545 65 135 0.0 0.0 0.00 0.00 0.00 62 1015.6
20260504040044 64 111 0.9 0.0 0.00 0.00 0.00 62 1015.8
20260504034543 65 140 0.0 0.0 0.00 0.00 0.00 60 1015.7
20260504033043 65 140 0.0 0.0 0.00 0.00 0.00 58 1015.6
20260504031542 65 141 0.0 0.0 0.00 0.00 0.00 57 1015.6
20260504030042 66 148 0.0 0.0 0.00 0.00 0.00 58 1015.7
20260504024544 66 148 0.0 0.0 0.00 0.00 0.00 57 1015.6
20260504023041 66 158 0.0 0.0 0.00 0.00 0.00 57 1015.5
20260504021540 66 133 0.0 0.0 0.00 0.00 0.00 56 1015.6
20260504020117 67 133 0.0 0.0 0.00 0.00 0.00 55 1015.5
20260504014554 68 133 0.0 0.0 0.00 0.00 0.00 54 1015.1
20260504013048 69 133 0.0 0.0 0.00 0.00 0.00 51 1015.0
20260504011539 71 141 0.0 0.0 0.00 0.00 0.00 48 1015.1
20260504010043 71 145 0.0 0.0 0.00 0.00 0.00 48 1015.1
20260504004553 72 148 0.9 0.0 0.00 0.00 0.00 45 1015.0
20260504003037 73 126 0.9 0.0 0.00 0.00 0.00 46 1015.0
20260504001548 74 172 0.9 0.0 0.00 0.00 0.00 45 1015.2
20260504000033 74 144 1.7 0.0 0.00 0.00 0.00 44 1015.5
20260503234534 75 207 0.9 0.0 0.00 0.00 0.00 43 1015.5
20260503233038 76 159 1.7 0.0 0.00 0.00 0.00 42 1015.7
20260503231533 76 131 0.9 0.0 0.00 0.00 0.00 44 1015.7
20260503230033 76 140 1.7 0.0 0.00 0.00 0.00 42 1015.5
20260503224529 77 124 2.6 0.0 0.00 0.00 0.00 41 1015.6
20260503223027 78 165 2.6 0.0 0.00 0.00 0.00 38 1016.0
20260503221526 79 117 1.7 0.0 0.00 0.00 0.00 39 1016.1
20260503220031 79 210 2.6 0.0 0.00 0.00 0.00 38 1016.3